Weather History for KGNA - February, 2013

Change the Weather History Date:

Thursday, February 14, 2013

  Actual Average (KCKC) Record (KCKC)
Temperature  
Mean Temperature 23 °F -  
Max Temperature 30 °F 20 °F 33 °F (1999)
Min Temperature 16 °F 5 °F -18 °F (2015)
Degree Days  
Heating Degree Days 42    
Moisture  
Dew Point 9 °F    
Average Humidity 58    
Maximum Humidity 78    
Minimum Humidity 44    
Precipitation  
Precipitation 0.00 in - - ()
Sea Level Pressure  
Sea Level Pressure 29.91 in    
Wind  
Wind Speed 4 mph (NNW)    
Max Wind Speed 9 mph    
Max Gust Speed 21 mph    
Averages and records for this station are not official NWS values.
T = Trace of Precipitation, MM = Missing Value Source: NWS Daily Summary

Daily Weather History Graph

Daily Weather History Graph

Search for Another Location

Airport or City:

Trip Planner

Search our weather history database for the weather conditions in past years. The results will help you decide how hot, cold, wet, or windy it might be!

Date:

Astronomy

Feb. 14, 2013 Rise Set
Actual Time 7:08 AM CST 5:23 PM CST
Civil Twilight 6:36 AM CST 5:55 PM CST
Nautical Twilight 6:00 AM CST 6:31 PM CST
Astronomical Twilight 5:24 AM CST 7:07 PM CST
Moon 8:46 AM CST (2/14) 10:53 PM CST (2/14)
Length of Visible Light 11h 18m
Length of Day
10h 14m
Waxing Crescent, 22% of the Moon is Illuminated
Feb 14
Waxing Crescent
Feb 17
First Quarter
Feb 25
Full
Mar 4
Last Quarter
Mar 11
New

Hourly Weather History & Observations

Time (CST) Temp. Windchill Dew Point Humidity Pressure Visibility Wind Dir Wind Speed Gust Speed Precip Events Conditions
12:56 AM 28.0 °F - 21.9 °F 78% 29.70 in - Calm Calm - N/A   Unknown
1:56 AM 28.9 °F - 21.9 °F 75% 29.71 in - Calm Calm - N/A   Unknown
2:56 AM 30.0 °F 23.2 °F 21.0 °F 69% 29.72 in - NNW 6.9 mph - N/A   Unknown
3:56 AM 28.9 °F 23.9 °F 21.0 °F 72% 29.71 in - NNW 4.6 mph - N/A   Unknown
4:56 AM 28.9 °F 21.9 °F 19.9 °F 69% 29.73 in - NNW 6.9 mph - N/A   Unknown
5:56 AM 27.0 °F 20.5 °F 19.0 °F 72% 29.75 in - North 5.8 mph - N/A   Unknown
6:56 AM 28.0 °F 20.0 °F 19.0 °F 69% 29.78 in - NNE 8.1 mph - N/A   Unknown
7:56 AM 23.0 °F 17.0 °F 12.9 °F 65% 29.83 in - Variable 4.6 mph - N/A   Unknown
8:56 AM 21.9 °F 13.4 °F 10.0 °F 60% 29.86 in - Variable 6.9 mph - N/A   Unknown
9:56 AM 23.0 °F 13.1 °F 10.0 °F 58% 29.88 in - North 9.2 mph - N/A   Unknown
10:56 AM 19.9 °F 11.1 °F 6.1 °F 55% 29.91 in - Variable 6.9 mph 20.7 mph N/A   Unknown
11:56 AM 21.9 °F 12.5 °F 7.0 °F 53% 29.91 in - North 8.1 mph 16.1 mph N/A   Unknown
12:56 PM 23.0 °F 13.9 °F 6.1 °F 48% 29.92 in - North 8.1 mph 16.1 mph N/A   Unknown
1:56 PM 24.1 °F 15.2 °F 5.0 °F 44% 29.93 in - NNW 8.1 mph - N/A   Unknown
2:56 PM 24.1 °F 15.2 °F 5.0 °F 44% 29.95 in - North 8.1 mph 17.3 mph N/A   Unknown
3:56 PM 23.0 °F 13.9 °F 5.0 °F 46% 29.98 in - NW 8.1 mph 17.3 mph N/A   Unknown
4:56 PM 21.0 °F 13.4 °F 3.9 °F 48% 30.01 in - Variable 5.8 mph - N/A   Unknown
5:56 PM 19.0 °F 13.9 °F 3.9 °F 52% 30.05 in - Variable 3.5 mph - N/A   Unknown
6:56 PM 18.0 °F 12.7 °F 3.0 °F 52% 30.07 in - WNW 3.5 mph - N/A   Unknown
7:56 PM 18.0 °F 12.7 °F 1.0 °F 48% 30.08 in - Variable 3.5 mph - N/A   Unknown
8:56 PM 17.1 °F - 1.0 °F 50% 30.09 in - Calm Calm - N/A   Unknown
9:56 PM 17.1 °F - 1.0 °F 50% 30.09 in - Calm Calm - N/A   Unknown
10:56 PM 16.0 °F 8.8 °F 1.9 °F 54% 30.10 in - Variable 4.6 mph - N/A   Unknown
11:56 PM 16.0 °F - 1.0 °F 52% 30.12 in - Calm Calm - N/A   Unknown